Regional Weather Roundup
Issued by NWS Tiyan, Guam

Home | Current Version | Previous Version | Text Only | Print | Product List | Glossary On
Versions: 1 2 3 4 5 6 7 8 9 10 11 12 13 14 15 16 17 18 19 20 21 22 23 24 25 26 27
000
ASGM40 PGUM 310510
RWRGUM
WEATHER ROUNDUP FOR THE MARIANAS
NATIONAL WEATHER SERVICE TIYAN GU
300 PM CHST SAT JUL 31 2021

GUZ001>004-310600-
MARIANA ISLANDS-

CITY           SKY/WX    TMP DP  RH WIND       PRES   REMARKS
GUAM AIRPORT   PTSUNNY   82  77  83 NW9       29.78F HX  91
ANDERSEN AFB   PTSUNNY   79  75  89 N7        29.77F
ROTA AIRPORT   LGT RAIN  81  73  78 W12       29.75F
TINIAN AP      MOSUNNY   88  75  66 W7        29.75F HX  97
SAIPAN AP      MOSUNNY   88  79  74 W8        29.76F HX 102

$$




USA.gov is the U.S. government's official web portal to all federal, state and local government web resources and services.